Location: Düngen
(52.0952°N, 10.0219°E)
Time: 16:14:30
(UTC+00:00)

CZ-4 R/B - Pass Details

Date: 11 March 2026
Orbit: 491 x 538 km, 97.6° (Epoch: 14 April)

Event Time Altitude Azimuth Distance (km) Brightness Sun altitude
Exits shadow 19:05:28 17° 167° (SSE) 1,408 3.1 -17.2°
Maximum altitude 19:08:25 85° 253° (WSW) 546 1.2 -17.7°
Drops below altitude 10° 19:12:21 10° 345° (NNW) 1,812 4.4 -18.2°
Sets 19:14:29 0° 346° (NNW) 2,710 5.3 -18.6°
